STARLINK-34195 (64142 NORAD) Tracking and Keplerian Element Data

This shows tracking and keplerian element data for the satellite.

Feedback or suggestion? Click here.




ElementValue
Catalog64142
NameSTARLINK-34195
Epoch Orbit3324
Epoch Day353.77194176
Epoch Year2025
RAAN168.9677
Inclination42.9973
Eccentricity0.0001449
Argument of Perigee259.1368
Mean Anonmoly100.932
Mean Motion15.27594303
Decay Rate0.00018269
L11 64142U 25111V 25353.77194176 .00018269 00000+0 67148-3 0 9991
L22 64142 42.9973 168.9677 0001449 259.1368 100.9320 15.27594303 33245



Live tracking and technical data element details for STARLINK-34195 (NORAD 64142). STARLINK-34195 can be tracked NOW for your location showing map with azimuth and elevation plus other details from your city location.







IsCatalogInMostPopularTable: catalog: 64142, numindb: 3
Update: records affected: 1



GetName: 64142 STARLINK-34195

Hit Count: updated at: Sun, 08 Feb 2026 16:35:48 GMT